Simultaneous Nadir Overpasses (SNOs) Predictions

Prediction of SNOs between GOES-17 and AQUA Satellite Orbit:

Table of predicted SNOs for the next 14.0 days since TLE Epoch: 2/22/2020
Index Date Time (GOES-17) GOES-17 Lat,Lon AQUA Lat,Lon Distance(km) Time Diff (sec)
1 02/22/2020 10:43:04 0.02,-137.21 -0.01,-137.18 5.08 80
2 02/24/2020 10:30:54 0.02,-137.20 -0.64,-134.22 339.57 80
3 02/24/2020 22:52:18 -0.02,-137.21 -0.48,-139.41 250.40 80
4 02/26/2020 22:42:48 -0.02,-137.20 0.16,-136.46 84.42 80
5 02/28/2020 22:30:37 -0.02,-137.18 0.75,-133.49 418.68 80
6 02/29/2020 10:51:52 0.02,-137.17 0.36,-138.65 168.93 80
7 03/02/2020 10:37:03 0.02,-137.14 -0.28,-135.70 164.37 80
8 03/02/2020 22:58:26 -0.02,-137.14 -0.82,-140.89 426.22 80
9 03/04/2020 10:24:53 0.02,-137.11 -0.93,-132.75 496.71 80
10 03/04/2020 22:46:15 -0.02,-137.10 -0.22,-137.93 94.10 80
11 03/06/2020 22:36:45 -0.02,-137.06 0.44,-134.98 237.31 80




NCC Satellite Simultaneous Nadir Overpasses (SNOs) Prediction Service
